H1 CPF 2 NER 2024 2 21 9 052 01 glonass140 H2 1903001 9140 44299 2024 2 21 0 0 0 2024 2 24 23 45 0 900 1 1 0 0 0 1 H9 10 0 60361 0.00000 0 7475140.234 24302177.067 1961127.086 10 0 60361 900.00000 0 7439352.594 23849381.077 5128429.604 10 0 60361 1800.00000 0 7208650.773 23052537.330 8196052.761 10 0 60361 2700.00000 0 6744007.234 21952051.370 11104420.316 10 0 60361 3600.00000 0 6015846.922 20597433.695 13797089.677 10 0 60361 4500.00000 0 5005548.001 19045198.943 16221845.095 10 0 60361 5400.00000 0 3706482.261 17356493.757 18331705.277 10 0 60361 6300.00000 0 2124551.207 15594553.390 20085826.391 10 0 60361 7200.00000 0 278195.155 13822093.802 21450283.794 10 0 60361 8100.00000 0 -1802125.340 12098748.092 22398718.385 10 0 60361 9000.00000 0 -4074954.455 10478653.676 22912836.274 10 0 60361 9900.00000 0 -6489330.351 9008289.926 22982753.200 10 0 60361 10800.00000 0 -8986677.531 7724655.143 22607178.079 10 0 60361 11700.00000 0 -11503024.701 6653857.443 21793432.840 10 0 60361 12600.00000 0 -13971457.161 5810176.889 20557308.602 10 0 60361 13500.00000 0 -16324703.250 5195636.621 18922761.021 10 0 60361 14400.00000 0 -18497748.730 4800099.782 16921450.378 10 0 60361 15300.00000 0 -20430371.737 4601887.321 14592134.725 10 0 60361 16200.00000 0 -22069493.926 4568890.199 11979927.006 10 0 60361 17100.00000 0 -23371250.804 4660129.084 9135429.578 10 0 60361 18000.00000 0 -24302695.438 4827695.879 6113761.994 10 0 60361 18900.00000 0 -24843064.691 5018995.419 2973500.030 10 0 60361 19800.00000 0 -24984555.025 5179192.914 -224454.158 10 0 60361 20700.00000 0 -24732575.107 5253763.810 -3418049.261 10 0 60361 21600.00000 0 -24105464.247 5191038.172 -6545286.793 10 0 60361 22500.00000 0 -23133687.904 4944631.582 -9545424.492 10 0 60361 23400.00000 0 -21858543.514 4475659.055 -12360157.580 10 0 60361 24300.00000 0 -20330430.435 3754637.329 -14934754.606 10 0 60361 25200.00000 0 -18606756.208 2762993.860 -17219125.468 10 0 60361 26100.00000 0 -16749566.690 1494117.191 -19168800.429 10 0 60361 27000.00000 0 -14822999.266 -46097.326 -20745800.727 10 0 60361 27900.00000 0 -12890665.807 -1839231.381 -21919383.539 10 0 60361 28800.00000 0 -11013075.028 -3854859.688 -22666646.459 10 0 60361 29700.00000 0 -9245202.214 -6051578.337 -22972979.454 10 0 60361 30600.00000 0 -7634308.069 -8378504.076 -22832355.182 10 0 60361 31500.00000 0 -6218097.983 -10777183.197 -22247451.687 10 0 60361 32400.00000 0 -5023298.649 -13183831.292 -21229604.718 10 0 60361 33300.00000 0 -4064711.358 -15531811.060 -19798590.224 10 0 60361 34200.00000 0 -3344781.215 -17754245.032 -17982240.908 10 0 60361 35100.00000 0 -2853699.657 -19786654.138 -15815904.041 10 0 60361 36000.00000 0 -2570035.075 -21569511.741 -13341750.906 10 0 60361 36900.00000 0 -2461863.867 -23050605.987 -10607951.401 10 0 60361 37800.00000 0 -2488352.976 -24187111.351 -7667730.100 10 0 60361 38700.00000 0 -2601725.678 -24947282.372 -4578322.623 10 0 60361 39600.00000 0 -2749526.048 -25311698.571 -1399853.387 10 0 60361 40500.00000 0 -2877084.861 -25274008.559 1805842.591 10 0 60361 41400.00000 0 -2930081.141 -24841142.674 4976429.970 10 0 60361 42300.00000 0 -2857089.690 -24032986.044 8050290.951 10 0 60361 43200.00000 0 -2612005.769 -22881526.856 10967726.281 10 0 60361 44100.00000 0 -2156243.599 -21429516.741 13672115.547 10 0 60361 45000.00000 0 -1460615.258 -19728700.633 16111013.979 10 0 60361 45900.00000 0 -506810.403 -17837691.285 18237164.620 10 0 60361 46800.00000 0 711585.723 -15819578.137 20009406.775 10 0 60361 47700.00000 0 2188578.876 -13739370.870 21393463.929 10 0 60361 48600.00000 0 3905778.699 -11661384.315 22362596.927 10 0 60361 49500.00000 0 5832937.680 -9646673.254 22898110.966 10 0 60361 50400.00000 0 7928994.087 -7750623.075 22989707.708 10 0 60361 51300.00000 0 10143576.088 -6020795.346 22635676.727 10 0 60361 52200.00000 0 12418905.325 -4495116.469 21842923.345 10 0 60361 53100.00000 0 14692021.795 -3200483.270 20626832.742 10 0 60361 54000.00000 0 16897238.740 -2151842.037 19010973.027 10 0 60361 54900.00000 0 18968726.711 -1351777.958 17026642.728 10 0 60361 55800.00000 0 20843120.501 -790630.940 14712270.869 10 0 60361 56700.00000 0 22462041.443 -447132.032 12112680.426 10 0 60361 57600.00000 0 23774430.831 -289533.155 9278228.475 10 0 60361 58500.00000 0 24738597.557 -277182.373 6263838.770 10 0 60361 59400.00000 0 25323894.704 -362478.258 3127944.666 10 0 60361 60300.00000 0 25511954.819 -493120.990 -68637.861 10 0 60361 61200.00000 0 25297431.790 -614565.143 -3263885.621 10 0 60361 62100.00000 0 24688217.607 -672570.458 -6395769.501 10 0 60361 63000.00000 0 23705124.204 -615742.443 -9403458.336 10 0 60361 63900.00000 0 22381042.886 -397954.855 -12228501.777 10 0 60361 64800.00000 0 20759615.842 19449.196 -14815968.897 10 0 60361 65700.00000 0 18893474.697 665771.657 -17115520.051 10 0 60361 66600.00000 0 16842119.389 1559470.435 -19082390.732 10 0 60361 67500.00000 0 14669525.737 2707131.225 -20678267.944 10 0 60361 68400.00000 0 12441581.542 4102945.310 -21872041.686 10 0 60361 69300.00000 0 10223458.294 5728717.106 -22640416.626 10 0 60361 70200.00000 0 8077028.260 7554402.948 -22968371.722 10 0 60361 71100.00000 0 6058434.779 9539160.167 -22849458.574 10 0 60361 72000.00000 0 4215917.256 11632863.950 -22285932.346 10 0 60361 72900.00000 0 2587981.512 13778029.627 -21288712.346 10 0 60361 73800.00000 0 1201991.727 15912060.824 -19877172.678 10 0 60361 74700.00000 0 73242.377 17969729.857 -18078766.670 10 0 60361 75600.00000 0 -795451.625 19885786.769 -15928492.134 10 0 60361 76500.00000 0 -1413630.365 21597587.664 -13468207.686 10 0 60361 77400.00000 0 -1802536.307 23047631.899 -10745813.488 10 0 60361 78300.00000 0 -1993962.496 24185901.379 -7814312.607 10 0 60361 79200.00000 0 -2028651.650 24971903.402 -4730771.726 10 0 60361 80100.00000 0 -1954315.387 25376330.979 -1555202.164 10 0 60361 81000.00000 0 -1823358.932 25382270.822 1650616.160 10 0 60361 81900.00000 0 -1690409.148 24985908.403 4824344.015 10 0 60361 82800.00000 0 -1609751.912 24196700.889 7904300.907 10 0 60361 83700.00000 0 -1632788.492 23037011.392 10830667.453 10 0 60361 84600.00000 0 -1805619.442 21541220.732 13546648.169 10 0 60361 85500.00000 0 -2166858.776 19754354.881 15999571.815 10 0 60362 0.00000 0 -2745770.995 17730286.671 18141907.947 10 0 60362 900.00000 0 -3560810.027 15529586.500 19932181.512 10 0 60362 1800.00000 0 -4618620.734 13217115.001 21335765.783 10 0 60362 2700.00000 0 -5913545.997 10859454.479 22325543.138 10 0 60362 3600.00000 0 -7427659.364 8522288.329 22882419.136 10 0 60362 4500.00000 0 -9131322.405 6267835.678 22995682.271 10 0 60362 5400.00000 0 -10984243.871 4152446.855 22663203.288 10 0 60362 6300.00000 0 -12936997.153 2224458.180 21891470.966 10 0 60362 7200.00000 0 -14932933.659 522393.623 20695464.109 10 0 60362 8100.00000 0 -16910413.446 -926413.554 19098362.345 10 0 60362 9000.00000 0 -18805261.365 -2106723.419 17131101.009 10 0 60362 9900.00000 0 -20553347.478 -3015780.010 14831778.178 10 0 60362 10800.00000 0 -22093185.228 -3663174.888 12244924.518 10 0 60362 11700.00000 0 -23368439.748 -4070190.209 9420649.134 10 0 60362 12600.00000 0 -24330242.101 -4268649.432 6413677.038 10 0 60362 13500.00000 0 -24939212.861 -4299324.354 3282296.028 10 0 60362 14400.00000 0 -25167110.226 -4209965.662 87232.685 10 0 60362 15300.00000 0 -24998033.126 -4053040.167 -3109521.175 10 0 60362 16200.00000 0 -24429128.161 -3883270.326 -6245909.042 10 0 60362 17100.00000 0 -23470769.780 -3755080.221 -9261014.011 10 0 60362 18000.00000 0 -22146205.078 -3720056.361 -12096243.221 10 0 60362 18900.00000 0 -20490677.051 -3824531.255 -14696469.144 10 0 60362 19800.00000 0 -18550062.005 -4107392.743 -17011105.216 10 0 60362 20700.00000 0 -16379077.313 -4598212.758 -18995094.445 10 0 60362 21600.00000 0 -14039133.777 -5315775.765 -20609791.431 10 0 60362 22500.00000 0 -11595921.800 -6267070.472 -21823720.311 10 0 60362 23400.00000 0 -9116831.807 -7446788.806 -22613193.545 10 0 60362 24300.00000 0 -6668316.330 -8837354.901 -22962779.199 10 0 60362 25200.00000 0 -4313303.591 -10409484.406 -22865607.345 10 0 60362 26100.00000 0 -2108770.348 -12123252.054 -22323509.258 10 0 60362 27000.00000 0 -103575.065 -13929623.896 -21346986.335 10 0 60362 27900.00000 0 1663358.457 -15772390.856 -19955008.977 10 0 60362 28800.00000 0 3164431.513 -17590423.113 -18174648.977 10 0 60362 29700.00000 0 4384277.482 -19320151.013 -16040552.306 10 0 60362 30600.00000 0 5320148.282 -20898168.425 -13594262.374 10 0 60362 31500.00000 0 5981765.143 -22263848.910 -10883406.986 10 0 60362 32400.00000 0 6390641.369 -23361864.404 -7960765.051 10 0 60362 33300.00000 0 6578907.141 -24144499.995 -4883231.674 10 0 60362 34200.00000 0 6587687.606 -24573666.954 -1710702.504 10 0 60362 35100.00000 0 6465104.489 -24622528.984 1495100.122 10 0 60362 36000.00000 0 6263987.422 -24276673.079 4671835.445 10 0 60362 36900.00000 0 6039393.346 -23534775.830 7757762.512 10 0 60362 37800.00000 0 5846040.330 -22408737.483 10692943.887 10 0 60362 38700.00000 0 5735765.383 -20923278.620 13420410.910 10 0 60362 39600.00000 0 5755114.502 -19115017.058 15887267.583 10 0 60362 40500.00000 0 5943167.140 -17031064.252 18045711.804 10 0 60362 41400.00000 0 6329686.988 -14727200.491 19853954.615 10 0 60362 42300.00000 0 6933676.892 -12265705.424 21277020.431 10 0 60362 43200.00000 0 7762398.468 -9712934.383 22287413.811 10 0 60362 44100.00000 0 8810897.399 -7136741.031 22865641.017 10 0 60362 45000.00000 0 10062054.216 -4603852.798 23000577.433 10 0 60362 45900.00000 0 11487158.571 -2177306.997 22689674.755 10 0 60362 46800.00000 0 13046983.320 85947.337 21939004.749 10 0 60362 47700.00000 0 14693314.193 2137183.907 20763139.165 10 0 60362 48600.00000 0 16370871.987 3937682.974 19184868.274 10 0 60362 49500.00000 0 18019548.059 5460092.069 17234763.156 10 0 60362 50400.00000 0 19576860.823 6689308.485 14950589.702 10 0 60362 51300.00000 0 20980531.651 7622848.102 12376584.837 10 0 60362 52200.00000 0 22171073.344 8270686.227 9562608.048 10 0 60362 53100.00000 0 23094283.480 8654577.870 6563183.732 10 0 60362 54000.00000 0 23703538.484 8806886.539 3436452.043 10 0 60362 54900.00000 0 23961792.205 8768971.074 243047.862 10 0 60362 55800.00000 0 23843194.707 8589198.639 -2955070.836 10 0 60362 56700.00000 0 23334262.552 8320667.771 -6095822.711 10 0 60362 57600.00000 0 22434550.435 8018737.761 -9118207.698 10 0 60362 58500.00000 0 21156794.711 7738468.982 -11963492.929 10 0 60362 59400.00000 0 19526521.488 7532082.768 -14576356.652 10 0 60362 60300.00000 0 17581134.369 7446548.756 -16905967.561 10 0 60362 61200.00000 0 15368518.813 7521402.483 -18906978.136 10 0 60362 62100.00000 0 12945220.426 7786886.317 -20540412.311 10 0 60362 63000.00000 0 10374272.373 8262493.401 -21774429.869 10 0 60362 63900.00000 0 7722761.939 8955977.201 -22584952.338 10 0 60362 64800.00000 0 5059237.215 9862869.765 -22956137.919 10 0 60362 65700.00000 0 2451061.608 10966530.271 -22880695.895 10 0 60362 66600.00000 0 -38173.812 12238723.068 -22360034.055 10 0 60362 67500.00000 0 -2351072.550 13640702.006 -21404235.905 10 0 60362 68400.00000 0 -4438588.820 15124756.361 -20031867.747 10 0 60362 69300.00000 0 -6261827.928 16636153.985 -18269619.023 10 0 60362 70200.00000 0 -7793416.277 18115400.319 -16151782.633 10 0 60362 71100.00000 0 -9018384.409 19500718.322 -13719585.178 10 0 60362 72000.00000 0 -9934527.048 20730644.689 -11020380.171 10 0 60362 72900.00000 0 -10552226.287 21746632.665 -8106720.161 10 0 60362 73800.00000 0 -10893746.793 22495551.215 -5035326.278 10 0 60362 74700.00000 0 -10992034.376 22931974.633 -1865975.935 10 0 60362 75600.00000 0 -10889070.352 23020165.528 1339668.761 10 0 60362 76500.00000 0 -10633852.959 22735667.195 4519268.229 10 0 60362 77400.00000 0 -10280092.849 22066438.058 7611023.765 10 0 60362 78300.00000 0 -9883721.586 21013480.418 10554882.555 10 0 60362 79200.00000 0 -9500319.697 19590937.254 13293705.372 10 0 60362 80100.00000 0 -9182573.886 17825653.376 15774373.956 10 0 60362 81000.00000 0 -8977871.255 15756219.715 17948816.733 10 0 60362 81900.00000 0 -8926132.215 13431541.113 19774933.407 10 0 60362 82800.00000 0 -9057973.208 10908987.686 21217401.311 10 0 60362 83700.00000 0 -9393276.208 8252206.792 22248348.908 10 0 60362 84600.00000 0 -9940224.643 5528686.347 22847884.609 10 0 60362 85500.00000 0 -10694845.772 2807170.094 23004471.779 10 0 60363 0.00000 0 -11641078.328 155031.348 22715143.825 10 0 60363 900.00000 0 -12751363.074 -2364288.570 21985555.724 10 0 60363 1800.00000 0 -13987730.475 -4693668.948 20829871.989 10 0 60363 2700.00000 0 -15303342.175 -6784432.633 19270492.848 10 0 60363 3600.00000 0 -16644421.309 -8598113.296 17337623.953 10 0 60363 4500.00000 0 -17952492.242 -10107796.547 15068697.356 10 0 60363 5400.00000 0 -19166836.842 -11298980.223 12507654.160 10 0 60363 6300.00000 0 -20227065.271 -12169919.160 9704101.778 10 0 60363 7200.00000 0 -21075694.172 -12731440.896 6712361.231 10 0 60363 8100.00000 0 -21660624.486 -13006240.676 3590422.033 10 0 60363 9000.00000 0 -21937414.909 -13027685.752 398824.206 10 0 60363 9900.00000 0 -21871255.096 -12838179.449 -2800511.372 10 0 60363 10800.00000 0 -21438554.997 -12487154.048 -5945481.848 10 0 60363 11700.00000 0 -20628082.431 -12028777.177 -8975007.312 10 0 60363 12600.00000 0 -19441599.805 -11519468.685 -11830218.151 10 0 60363 13500.00000 0 -17893971.715 -11015333.071 -14455601.528 10 0 60363 14400.00000 0 -16012737.367 -10569616.304 -16800084.322 10 0 60363 15300.00000 0 -13837164.175 -10230294.971 -18818031.097 10 0 60363 16200.00000 0 -11416820.746 -10037900.223 -20470137.302 10 0 60363 17100.00000 0 -8809727.592 -10023669.177 -21724200.019 10 0 60363 18000.00000 0 -6080161.784 -10208102.657 -22555750.896 10 0 60363 18900.00000 0 -3296206.227 -10599991.065 -22948538.680 10 0 60363 19800.00000 0 -527145.087 -11195950.427 -22894851.640 10 0 60363 20700.00000 0 2159186.632 -11980489.112 -22395673.268 10 0 60363 21600.00000 0 4698989.262 -12926603.308 -21460667.853 10 0 60363 22500.00000 0 7034913.016 -13996876.874 -20107995.839 10 0 60363 23400.00000 0 9118200.472 -15145039.795 -18363962.194 10 0 60363 24300.00000 0 10910468.017 -16317919.864 -16262504.335 10 0 60363 25200.00000 0 12385052.365 -17457705.368 -13844529.396 10 0 60363 26100.00000 0 13527866.533 -18504423.160 -11157113.747 10 0 60363 27000.00000 0 14337730.413 -19398527.105 -8252580.587 10 0 60363 27900.00000 0 14826163.343 -20083487.071 -5187473.962 10 0 60363 28800.00000 0 15016648.869 -20508268.457 -2021449.934 10 0 60363 29700.00000 0 14943404.371 -20629596.860 1183892.721 10 0 60363 30600.00000 0 14649709.200 -20413911.683 4366218.574 10 0 60363 31500.00000 0 14185863.640 -19838925.758 7463673.960 10 0 60363 32400.00000 0 13606866.540 -18894724.978 10416093.213 10 0 60363 33300.00000 0 12969911.052 -17584361.523 13166168.747 10 0 60363 34200.00000 0 12331805.290 -15923915.812 15660561.901 10 0 60363 35100.00000 0 11746427.396 -13942024.770 17850933.094 10 0 60363 36000.00000 0 11262322.551 -11678896.290 19694871.781 10 0 60363 36900.00000 0 10920543.014 -9184851.218 21156708.892 10 0 60363 37800.00000 0 10752821.585 -6518453.582 22208197.104 10 0 60363 38700.00000 0 10780154.598 -3744306.524 22829046.903 10 0 60363 39600.00000 0 11011853.174 -930604.955 23007309.237 10 0 60363 40500.00000 0 11445101.859 1853454.450 22739598.416 10 0 60363 41400.00000 0 12065042.622 4540299.741 22031151.759 10 0 60363 42300.00000 0 12845380.449 7066539.204 20895725.328 10 0 60363 43200.00000 0 13749485.222 9375341.532 19355327.912 10 0 60363 44100.00000 0 14731944.085 11418543.531 17439798.184 10 0 60363 45000.00000 0 15740499.796 13158399.377 15186232.663 10 0 60363 45900.00000 0 16718294.568 14568900.047 12638274.790 10 0 60363 46800.00000 0 17606326.008 15636609.173 9845277.940 10 0 60363 47700.00000 0 18346012.678 16360981.311 6861357.652 10 0 60363 48600.00000 0 18881761.938 16754149.962 3744350.573 10 0 60363 49500.00000 0 19163432.255 16840194.698 554699.529 10 0 60363 50400.00000 0 19148586.138 16653918.322 -2645714.094 10 0 60363 51300.00000 0 18804438.286 16239185.629 -5794768.323 10 0 60363 52200.00000 0 18109416.000 15646893.735 -8831305.737 10 0 60363 53100.00000 0 17054264.873 14932659.557 -11696322.188 10 0 60363 54000.00000 0 15642651.721 14154322.100 -14334115.770 10 0 60363 54900.00000 0 13891237.723 13369365.094 -16693373.363 10 0 60363 55800.00000 0 11829216.916 12632369.048 -18728173.201 10 0 60363 56700.00000 0 9497337.672 11992600.656 -20398883.621 10 0 60363 57600.00000 0 6946446.483 11491841.713 -21672940.163 10 0 60363 58500.00000 0 4235613.509 11162549.711 -22525485.549 10 0 60363 59400.00000 0 1429916.941 11026428.271 -22939859.800 10 0 60363 60300.00000 0 -1402022.407 11093468.325 -22907930.646 10 0 60363 61200.00000 0 -4190654.223 11361501.067 -22430257.434 10 0 60363 62100.00000 0 -6868151.201 11816282.078 -21516085.029 10 0 60363 63000.00000 0 -9370990.844 12432103.528 -20183167.406 10 0 60363 63900.00000 0 -11642359.171 13172908.977 -18457424.040 10 0 60363 64800.00000 0 -13634276.413 13993863.855 -16372435.460 10 0 60363 65700.00000 0 -15309356.276 14843315.274 -13968787.595 10 0 60363 66600.00000 0 -16642125.698 15665058.130 -11293277.682 10 0 60363 67500.00000 0 -17619850.580 16400811.208 -8397997.386 10 0 60363 68400.00000 0 -18242833.827 16992797.999 -5339311.386 10 0 60363 69300.00000 0 -18524174.410 17386322.275 -2176752.028 10 0 60363 70200.00000 0 -18488999.062 17532228.716 1028147.613 10 0 60363 71100.00000 0 -18173200.602 17389143.768 4213058.664 10 0 60363 72000.00000 0 -17621737.795 16925401.376 7316074.881 10 0 60363 72900.00000 0 -16886570.114 16120571.796 10276920.135 10 0 60363 73800.00000 0 -16024316.003 14966528.682 13038120.840 10 0 60363 74700.00000 0 -15093734.645 13468009.378 15546120.228 10 0 60363 75600.00000 0 -14153138.157 11642644.830 17752312.925 10 0 60363 76500.00000 0 -13257843.641 9520457.853 19613980.185 10 0 60363 77400.00000 0 -12457772.219 7142850.712 21095108.405 10 0 60363 78300.00000 0 -11795295.546 4561124.127 22167076.080 10 0 60363 79200.00000 0 -11303419.427 1834589.006 22809197.097 10 0 60363 80100.00000 0 -11004379.829 -971651.180 23009110.972 10 0 60363 81000.00000 0 -10908709.079 -3789156.171 22763013.591 10 0 60363 81900.00000 0 -11014810.480 -6548742.184 22075724.791 10 0 60363 82800.00000 0 -11309058.402 -9183106.447 20960592.004 10 0 60363 83700.00000 0 -11766419.228 -11629375.763 19439231.991 10 0 60363 84600.00000 0 -12351566.972 -13831474.916 17541115.423 10 0 60363 85500.00000 0 -13020446.973 -15742218.104 15303001.873 10 0 60364 0.00000 0 -13722222.384 -17325037.682 12768235.585 10 0 60364 900.00000 0 -14401522.625 -18555280.203 9985913.339 10 0 60364 1800.00000 0 -15000898.911 -19421014.521 7009943.042 10 0 60364 2700.00000 0 -15463385.241 -19923321.633 3898005.881 10 0 60364 3600.00000 0 -15735056.336 -20076052.332 710444.738 10 0 60364 4500.00000 0 -15767475.017 -19905063.855 -2490901.394 10 0 60364 5400.00000 0 -15519925.412 -19446967.492 -5643894.431 10 0 60364 6300.00000 0 -14961337.018 -18747439.714 -8687302.520 10 0 60364 7200.00000 0 -14071817.371 -17859167.855 -11561990.095 10 0 60364 8100.00000 0 -12843727.303 -16839516.804 -14212069.276 10 0 60364 9000.00000 0 -11282251.790 -15748015.054 -16585989.915 10 0 60364 9900.00000 0 -9405440.578 -14643766.158 -18637546.676 10 0 60364 10800.00000 0 -7243714.956 -13582894.865 -20326783.213 10 0 60364 11700.00000 0 -4838859.490 -12616135.801 -21620775.516 10 0 60364 12600.00000 0 -2242539.213 -11786666.594 -22494278.848 10 0 60364 13500.00000 0 485597.283 -11128277.041 -22930225.402 10 0 60364 14400.00000 0 3280150.964 -10663951.764 -22920062.676 10 0 60364 15300.00000 0 6072449.496 -10404926.338 -22463925.631 10 0 60364 16200.00000 0 8793165.932 -10350256.916 -21570638.950 10 0 60364 17100.00000 0 11374970.306 -10486921.624 -20257548.929 10 0 60364 18000.00000 0 13755103.881 -10790449.493 -18550187.927 10 0 60364 18900.00000 0 15877768.903 -11226050.284 -16481777.582 10 0 60364 19800.00000 0 17696234.302 -11750197.211 -14092580.260 10 0 60364 20700.00000 0 19174569.525 -12312595.222 -11429111.362 10 0 60364 21600.00000 0 20288934.404 -12858450.968 -8543227.998 10 0 60364 22500.00000 0 21028371.598 -13330947.627 -5491112.199 10 0 60364 23400.00000 0 21395069.280 -13673818.927 -2332169.131 10 0 60364 24300.00000 0 21404084.179 -13833912.453 872137.400 10 0 60364 25200.00000 0 21082538.056 -13763632.825 4059488.586 10 0 60364 26100.00000 0 20468322.977 -13423160.542 7167928.977 10 0 60364 27000.00000 0 19608371.553 -12782352.027 10137075.063 10 0 60364 27900.00000 0 18556566.496 -11822240.124 12909289.980 10 0 60364 28800.00000 0 17371378.874 -10536071.468 15430801.142 10 0 60364 29700.00000 0 16113335.427 -8929836.858 17652739.203 10 0 60364 30600.00000 0 14842422.046 -7022272.221 19532078.569 10 0 60364 31500.00000 0 13615532.606 -4844330.007 21032461.981 10 0 60364 32400.00000 0 12484069.899 -2438142.868 22124894.193 10 0 60364 33300.00000 0 11491798.509 144477.553 22788292.494 10 0 60364 34200.00000 0 10673038.547 2843944.806 23009884.578 10 0 60364 35100.00000 0 10051274.643 5595126.527 22785447.131 10 0 60364 36000.00000 0 9638237.152 8329806.591 22119381.399 10 0 60364 36900.00000 0 9433492.887 10979279.677 21024624.767 10 0 60364 37800.00000 0 9424561.573 13476972.065 19522400.270 10 0 60364 38700.00000 0 9587552.493 15760981.422 17641808.669 10 0 60364 39600.00000 0 9888294.333 17776431.570 15419270.477 10 0 60364 40500.00000 0 10283910.801 19477545.633 12897827.995 10 0 60364 41400.00000 0 10724776.036 20829352.412 10126319.907 10 0 60364 42300.00000 0 11156767.928 21808955.629 7158443.535 10 0 60364 43200.00000 0 11523724.841 22406313.613 4051722.001 10 0 60364 44100.00000 0 11770002.459 22624497.094 866395.569 10 0 60364 45000.00000 0 11843022.946 22479414.361 -2335741.812 10 0 60364 45900.00000 0 11695708.599 21999015.197 -5492538.523 10 0 60364 46800.00000 0 11288696.662 21222006.843 -8542690.722 10 0 60364 47700.00000 0 10592240.871 20196135.686 -11426933.655 10 0 60364 48600.00000 0 9587718.194 18976106.763 -14089195.446 10 0 60364 49500.00000 0 8268675.674 17621228.412 -16477690.627 10 0 60364 50400.00000 0 6641371.449 16192881.127 -18545931.723 10 0 60364 51300.00000 0 4724785.302 14751917.110 -20253638.871 10 0 60364 52200.00000 0 2550096.267 13356099.951 -21567529.427 10 0 60364 53100.00000 0 159647.316 12057692.284 -22461971.878 10 0 60364 54000.00000 0 -2394561.309 10901292.949 -22919491.007 10 0 60364 54900.00000 0 -5052788.684 9922014.720 -22931114.215 10 0 60364 55800.00000 0 -7749800.893 9144079.310 -22496551.885 10 0 60364 56700.00000 0 -10417357.026 8579888.735 -21624207.940 10 0 60364 57600.00000 0 -12986830.428 8229612.003 -20331020.015 10 0 60364 58500.00000 0 -15391856.257 8081304.314 -18642131.966 10 0 60364 59400.00000 0 -17570895.071 8111553.364 -16590404.789 10 0 60364 60300.00000 0 -19469605.463 8286624.965 -14215775.238 10 0 60364 61200.00000 0 -21042926.610 8564058.901 -11564474.617 10 0 60364 62100.00000 0 -22256783.701 8894646.700 -8688123.103 10 0 60364 63000.00000 0 -23089345.078 9224706.694 -5642717.646 10 0 60364 63900.00000 0 -23531778.862 9498558.926 -2487533.801 10 0 60364 64800.00000 0 -23588478.071 9661094.021 716036.291 10 0 60364 65700.00000 0 -23276745.862 9660326.091 3905686.253 10 0 60364 66600.00000 0 -22625955.377 9449820.603 7019413.756 10 0 60364 67500.00000 0 -21676221.014 8990893.619 9996730.207 10 0 60364 68400.00000 0 -20476638.440 8254488.796 12779837.695 10 0 60364 69300.00000 0 -19083168.713 7222652.425 15314749.977 10 0 60364 70200.00000 0 -17556256.535 5889544.069 17552335.740 10 0 60364 71100.00000 0 -15958283.346 4261940.047 19449264.358 10 0 60364 72000.00000 0 -14350962.409 2359208.506 20968836.471 10 0 60364 72900.00000 0 -12792784.855 212756.839 22081684.334 10 0 60364 73800.00000 0 -11336622.922 -2135025.808 22766329.543 10 0 60364 74700.00000 0 -10027589.644 -4632287.426 23009588.500 10 0 60364 75600.00000 0 -8901243.128 -7219630.993 22806818.866 10 0 60364 76500.00000 0 -7982208.990 -9832352.602 22162003.102 10 0 60364 77400.00000 0 -7283277.082 -12402908.111 21087668.008 10 0 60364 78300.00000 0 -6805008.938 -14863507.276 19604642.030 10 0 60364 79200.00000 0 -6535871.263 -17148729.091 17741654.834 10 0 60364 80100.00000 0 -6452889.104 -19198051.034 15534786.412 10 0 60364 81000.00000 0 -6522790.857 -20958188.309 13026775.628 10 0 60364 81900.00000 0 -6703596.848 -22385146.758 10266200.676 10 0 60364 82800.00000 0 -6946584.766 -23445904.587 7306546.380 10 0 60364 83700.00000 0 -7198549.385 -24119653.186 4205175.529 10 0 60364 84600.00000 0 -7404261.467 -24398545.337 1022223.407 10 0 60364 85500.00000 0 -7509022.206 -24287919.394 -2180563.550 99